Precipitable_Water
0.48 0.48 0.47 0.46 0.46 0.45 0.45 0.45 0.45 0.44 0.44 0.44 0.43 0.44 0.43 0.43 0.43 0.42 0.42 0.42 0.43 0.45 0.48 0.50 0.51 0.52 0.52 0.51 0.51 0.52 0.53 0.44 0.36 0.33 0.29 0.23 0.27 0.30 0.29 0.30 0.33 0.33 0.36 0.34 0.29 0.26 0.22 0.24 0.20 0.25 0.23 0.19 0.18 0.19 0.28 0.27 0.29 0.28 0.18 0.14 0.11 0.10 0.09 0.12 0.15 0.19 0.22 0.20 0.22 0.24 0.24 0.26 0.32 0.67 0.70 0.72 0.63 0.60 0.68 0.72 0.82 0.90 0.90 0.97 1.09 1.20 1.28 1.33
0.48 0.47 0.46 0.46 0.46 0.46 0.45 0.45 0.45 0.45 0.44 0.44 0.44 0.44 0.44 0.44 0.44 0.43 0.43 0.42 0.43 0.43 0.45 0.47 0.48 0.50 0.50 0.51 0.50 0.52 0.48 0.40 0.31 0.29 0.24 0.34 0.37 0.33 0.31 0.35 0.34 0.34 0.38 0.27 0.23 0.21 0.18 0.17 0.18 0.20 0.19 0.14 0.25 0.18 0.28 0.24 0.29 0.21 0.17 0.15 0.10 0.11 0.11 0.15 0.18 0.21 0.22 0.22 0.24 0.24 0.25 0.25 0.30 0.61 0.75 0.58 0.56 0.60 0.58 0.68 0.78 0.78 0.91 1.04 1.13 1.22 1.23 1.28
0.49 0.47 0.47 0.46 0.46 0.46 0.46 0.45 0.45 0.45 0.45 0.44 0.44 0.44 0.43 0.44 0.44 0.45 0.45 0.44 0.43 0.43 0.43 0.42 0.44 0.46 0.48 0.50 0.49 0.50 0.44 0.32 0.29 0.20 0.38 0.46 0.46 0.46 0.34 0.37 0.39 0.35 0.28 0.23 0.25 0.21 0.18 0.16 0.18 0.18 0.18 0.15 0.20 0.18 0.24 0.24 0.25 0.23 0.19 0.13 0.11 0.13 0.14 0.16 0.19 0.22 0.24 0.25 0.24 0.22 0.24 0.24 0.25 0.25 0.76 0.64 0.60 0.63 0.53 0.57 0.71 0.71 0.78 0.90 1.05 1.16 1.20 1.22
0.48 0.48 0.47 0.47 0.47 0.46 0.46 0.45 0.45 0.44 0.44 0.44 0.44 0.44 0.43 0.44 0.44 0.45 0.45 0.45 0.44 0.44 0.43 0.42 0.41 0.43 0.46 0.47 0.48 0.48 0.39 0.26 0.20 0.35 0.43 0.49 0.47 0.45 0.38 0.36 0.43 0.42 0.38 0.31 0.26 0.21 0.23 0.22 0.20 0.18 0.17 0.15 0.19 0.24 0.20 0.24 0.20 0.24 0.20 0.14 0.13 0.16 0.14 0.16 0.21 0.24 0.25 0.26 0.24 0.23 0.25 0.23 0.24 0.28 0.63 0.68 0.57 0.56 0.61 0.69 0.61 0.70 0.78 0.88 1.00 1.07 1.13 1.14
0.46 0.46 0.46 0.46 0.46 0.46 0.46 0.46 0.45 0.45 0.44 0.44 0.44 0.44 0.43 0.44 0.44 0.45 0.46 0.46 0.46 0.45 0.45 0.43 0.41 0.41 0.42 0.45 0.46 0.46 0.28 0.13 0.33 0.49 0.53 0.54 0.50 0.47 0.39 0.38 0.41 0.43 0.38 0.33 0.27 0.22 0.21 0.21 0.20 0.18 0.17 0.13 0.19 0.20 0.21 0.25 0.25 0.23 0.19 0.18 0.17 0.18 0.15 0.18 0.21 0.24 0.24 0.25 0.24 0.24 0.23 0.22 0.25 0.40 0.54 0.62 0.45 0.48 0.54 0.63 0.76 0.76 0.85 0.87 0.94 1.05 1.09 1.08
0.44 0.44 0.44 0.44 0.45 0.45 0.45 0.45 0.45 0.45 0.44 0.44 0.43 0.43 0.43 0.43 0.44 0.44 0.45 0.47 0.47 0.46 0.45 0.44 0.42 0.40 0.42 0.43 0.43 0.38 0.20 0.08 0.40 0.44 0.61 0.53 0.52 0.50 0.44 0.41 0.43 0.44 0.38 0.29 0.23 0.19 0.18 0.20 0.19 0.15 0.15 0.15 0.15 0.15 0.20 0.25 0.29 0.18 0.21 0.20 0.20 0.20 0.17 0.19 0.21 0.22 0.24 0.24 0.23 0.23 0.24 0.24 0.23 0.25 0.40 0.47 0.41 0.51 0.64 0.73 0.81 0.87 0.88 0.92 0.95 0.98 1.01 1.04
0.44 0.44 0.44 0.43 0.43 0.43 0.43 0.44 0.44 0.45 0.45 0.44 0.44 0.43 0.42 0.42 0.42 0.43 0.44 0.45 0.46 0.46 0.45 0.45 0.43 0.42 0.41 0.41 0.43 0.29 0.16 0.13 0.21 0.37 0.44 0.56 0.59 0.53 0.49 0.48 0.50 0.42 0.34 0.26 0.22 0.16 0.17 0.17 0.17 0.14 0.15 0.15 0.17 0.18 0.21 0.22 0.27 0.24 0.18 0.21 0.20 0.22 0.19 0.21 0.21 0.22 0.23 0.23 0.22 0.24 0.24 0.22 0.22 0.21 0.30 0.39 0.38 0.48 0.65 0.80 0.88 0.95 1.01 1.04 0.94 0.96 0.94 0.98
0.44 0.44 0.44 0.44 0.43 0.43 0.43 0.42 0.43 0.42 0.43 0.43 0.43 0.43 0.42 0.42 0.42 0.41 0.42 0.43 0.45 0.45 0.46 0.45 0.44 0.43 0.42 0.35 0.24 0.17 0.16 0.10 0.24 0.37 0.47 0.53 0.57 0.53 0.54 0.55 0.48 0.42 0.32 0.25 0.20 0.15 0.17 0.16 0.14 0.17 0.15 0.13 0.18 0.18 0.21 0.20 0.24 0.22 0.19 0.21 0.20 0.22 0.21 0.21 0.22 0.22 0.22 0.22 0.23 0.23 0.22 0.22 0.23 0.22 0.30 0.32 0.42 0.52 0.65 0.85 0.90 0.95 0.97 0.98 0.95 0.95 1.01 1.06
0.45 0.44 0.44 0.44 0.43 0.43 0.43 0.43 0.42 0.41 0.41 0.41 0.41 0.41 0.42 0.42 0.42 0.41 0.41 0.42 0.43 0.44 0.44 0.46 0.44 0.43 0.46 0.34 0.21 0.12 0.09 0.15 0.31 0.55 0.60 0.54 0.54 0.53 0.50 0.44 0.48 0.39 0.33 0.29 0.24 0.18 0.16 0.16 0.17 0.17 0.13 0.14 0.20 0.18 0.20 0.19 0.18 0.22 0.21 0.22 0.21 0.20 0.21 0.21 0.21 0.21 0.21 0.21 0.22 0.21 0.21 0.22 0.23 0.30 0.29 0.41 0.51 0.62 0.74 0.79 0.86 0.88 0.87 0.87 0.90 0.95 1.03 1.17
0.44 0.44 0.44 0.44 0.43 0.43 0.43 0.43 0.42 0.41 0.40 0.40 0.40 0.40 0.40 0.41 0.41 0.41 0.41 0.41 0.42 0.44 0.44 0.46 0.46 0.46 0.36 0.26 0.19 0.10 0.11 0.34 0.52 0.59 0.61 0.62 0.57 0.50 0.46 0.44 0.45 0.40 0.33 0.27 0.24 0.19 0.15 0.17 0.16 0.20 0.24 0.22 0.24 0.22 0.24 0.23 0.20 0.23 0.21 0.20 0.19 0.18 0.18 0.18 0.18 0.19 0.20 0.20 0.22 0.20 0.20 0.21 0.22 0.22 0.29 0.51 0.68 0.72 0.72 0.76 0.83 0.79 0.78 0.85 0.91 1.02 1.14 1.10
0.42 0.42 0.42 0.43 0.42 0.42 0.41 0.41 0.41 0.41 0.40 0.40 0.39 0.38 0.38 0.38 0.38 0.39 0.39 0.39 0.41 0.43 0.45 0.46 0.49 0.42 0.31 0.30 0.15 0.10 0.15 0.30 0.54 0.55 0.56 0.56 0.56 0.50 0.44 0.45 0.43 0.35 0.34 0.28 0.22 0.19 0.18 0.24 0.28 0.30 0.26 0.24 0.24 0.23 0.24 0.24 0.25 0.23 0.21 0.19 0.17 0.17 0.18 0.18 0.18 0.18 0.19 0.19 0.22 0.22 0.20 0.21 0.22 0.20 0.20 0.39 0.65 0.76 0.64 0.70 0.73 0.76 0.79 0.85 0.96 1.07 1.05 1.05
0.41 0.41 0.41 0.41 0.41 0.40 0.40 0.40 0.39 0.40 0.40 0.40 0.40 0.39 0.38 0.37 0.36 0.36 0.37 0.37 0.38 0.43 0.44 0.45 0.47 0.44 0.36 0.25 0.17 0.12 0.23 0.34 0.46 0.49 0.49 0.45 0.43 0.47 0.49 0.47 0.45 0.36 0.34 0.27 0.22 0.20 0.22 0.30 0.34 0.30 0.22 0.27 0.22 0.23 0.22 0.23 0.21 0.20 0.20 0.16 0.16 0.17 0.15 0.17 0.16 0.17 0.18 0.18 0.22 0.23 0.20 0.19 0.19 0.18 0.22 0.42 0.59 0.62 0.60 0.65 0.71 0.76 0.83 0.89 0.99 1.02 1.01 1.02
0.40 0.40 0.40 0.40 0.40 0.40 0.39 0.39 0.39 0.38 0.38 0.38 0.37 0.37 0.37 0.37 0.36 0.35 0.35 0.35 0.37 0.41 0.44 0.42 0.44 0.42 0.30 0.16 0.16 0.21 0.22 0.24 0.32 0.36 0.37 0.41 0.44 0.47 0.46 0.45 0.43 0.39 0.36 0.31 0.22 0.21 0.27 0.35 0.36 0.30 0.32 0.28 0.24 0.19 0.24 0.24 0.21 0.20 0.19 0.16 0.15 0.14 0.13 0.16 0.17 0.17 0.17 0.18 0.22 0.22 0.15 0.16 0.18 0.20 0.21 0.50 0.55 0.61 0.59 0.62 0.68 0.74 0.80 0.87 0.92 0.92 0.97 1.03
0.40 0.40 0.40 0.40 0.40 0.40 0.40 0.39 0.39 0.38 0.37 0.37 0.37 0.35 0.36 0.35 0.34 0.35 0.35 0.36 0.40 0.42 0.44 0.46 0.43 0.37 0.28 0.16 0.18 0.25 0.30 0.32 0.33 0.34 0.37 0.43 0.40 0.42 0.44 0.45 0.43 0.38 0.37 0.34 0.25 0.25 0.31 0.37 0.37 0.35 0.35 0.28 0.22 0.29 0.22 0.21 0.21 0.17 0.18 0.17 0.14 0.12 0.11 0.15 0.16 0.18 0.15 0.19 0.22 0.23 0.16 0.16 0.19 0.20 0.27 0.50 0.57 0.51 0.51 0.59 0.64 0.71 0.78 0.86 0.84 0.87 0.91 0.96
0.40 0.40 0.39 0.40 0.40 0.40 0.39 0.39 0.38 0.38 0.37 0.37 0.36 0.35 0.34 0.33 0.33 0.33 0.35 0.37 0.42 0.44 0.42 0.48 0.46 0.32 0.20 0.17 0.27 0.33 0.42 0.45 0.30 0.26 0.31 0.35 0.35 0.37 0.40 0.44 0.40 0.36 0.35 0.35 0.27 0.27 0.34 0.37 0.35 0.30 0.26 0.31 0.29 0.23 0.18 0.17 0.18 0.18 0.14 0.12 0.14 0.12 0.12 0.16 0.18 0.18 0.15 0.18 0.21 0.22 0.17 0.17 0.19 0.21 0.23 0.47 0.54 0.52 0.46 0.54 0.60 0.68 0.76 0.79 0.81 0.85 0.87 0.91
0.39 0.39 0.40 0.39 0.39 0.39 0.39 0.39 0.39 0.38 0.37 0.37 0.35 0.34 0.33 0.32 0.31 0.33 0.35 0.38 0.42 0.45 0.49 0.37 0.38 0.33 0.22 0.16 0.24 0.46 0.38 0.27 0.23 0.31 0.35 0.34 0.34 0.32 0.41 0.40 0.41 0.35 0.34 0.34 0.31 0.30 0.32 0.33 0.28 0.28 0.28 0.29 0.24 0.19 0.16 0.15 0.15 0.17 0.14 0.12 0.12 0.14 0.13 0.14 0.17 0.17 0.17 0.17 0.19 0.20 0.17 0.18 0.18 0.22 0.26 0.48 0.49 0.52 0.48 0.50 0.54 0.63 0.72 0.73 0.79 0.83 0.85 0.88
0.40 0.40 0.40 0.40 0.39 0.39 0.39 0.39 0.38 0.38 0.38 0.37 0.35 0.33 0.32 0.32 0.36 0.35 0.40 0.41 0.42 0.48 0.43 0.30 0.41 0.42 0.14 0.30 0.42 0.29 0.29 0.36 0.43 0.39 0.39 0.36 0.33 0.34 0.39 0.39 0.34 0.33 0.35 0.36 0.34 0.34 0.33 0.29 0.31 0.30 0.29 0.24 0.24 0.20 0.14 0.12 0.11 0.13 0.16 0.13 0.15 0.13 0.14 0.13 0.17 0.18 0.18 0.17 0.16 0.18 0.17 0.18 0.20 0.22 0.25 0.44 0.49 0.50 0.49 0.46 0.49 0.61 0.67 0.71 0.77 0.80 0.80 0.82
0.41 0.41 0.40 0.39 0.39 0.38 0.39 0.39 0.39 0.39 0.38 0.37 0.35 0.31 0.30 0.40 0.43 0.43 0.41 0.43 0.46 0.43 0.46 0.51 0.47 0.31 0.17 0.29 0.19 0.20 0.45 0.45 0.43 0.45 0.42 0.40 0.40 0.37 0.37 0.36 0.36 0.36 0.34 0.33 0.36 0.30 0.33 0.28 0.29 0.22 0.23 0.22 0.22 0.20 0.13 0.09 0.11 0.12 0.13 0.13 0.13 0.15 0.15 0.14 0.14 0.18 0.17 0.19 0.17 0.18 0.17 0.17 0.19 0.21 0.24 0.35 0.48 0.46 0.45 0.41 0.46 0.58 0.61 0.68 0.71 0.73 0.76 0.77
0.41 0.39 0.39 0.38 0.38 0.38 0.39 0.39 0.39 0.40 0.39 0.38 0.36 0.35 0.41 0.52 0.51 0.49 0.41 0.43 0.32 0.25 0.19 0.26 0.26 0.14 0.16 0.28 0.37 0.35 0.40 0.44 0.45 0.43 0.39 0.40 0.42 0.41 0.39 0.42 0.39 0.36 0.29 0.26 0.29 0.29 0.31 0.27 0.26 0.21 0.16 0.18 0.19 0.19 0.16 0.15 0.15 0.14 0.14 0.14 0.15 0.13 0.13 0.13 0.16 0.19 0.19 0.17 0.17 0.17 0.16 0.16 0.17 0.18 0.20 0.28 0.42 0.43 0.45 0.47 0.56 0.61 0.64 0.67 0.67 0.70 0.72 0.75
0.39 0.38 0.37 0.37 0.37 0.38 0.39 0.39 0.39 0.39 0.39 0.33 0.28 0.31 0.35 0.24 0.28 0.23 0.41 0.36 0.27 0.24 0.28 0.32 0.35 0.30 0.29 0.27 0.30 0.40 0.44 0.46 0.37 0.41 0.44 0.47 0.40 0.37 0.35 0.37 0.37 0.37 0.31 0.22 0.25 0.26 0.29 0.22 0.18 0.16 0.17 0.19 0.21 0.21 0.20 0.20 0.18 0.17 0.16 0.15 0.15 0.14 0.14 0.16 0.17 0.21 0.23 0.19 0.17 0.17 0.17 0.17 0.17 0.16 0.19 0.22 0.37 0.44 0.44 0.47 0.53 0.56 0.60 0.61 0.63 0.66 0.69 0.73
0.36 0.35 0.35 0.36 0.38 0.38 0.39 0.39 0.38 0.38 0.38 0.34 0.30 0.26 0.19 0.20 0.14 0.12 0.17 0.19 0.21 0.25 0.23 0.25 0.29 0.25 0.22 0.27 0.31 0.35 0.31 0.34 0.40 0.40 0.44 0.50 0.43 0.35 0.29 0.32 0.31 0.26 0.27 0.29 0.26 0.30 0.26 0.20 0.18 0.20 0.21 0.21 0.22 0.23 0.23 0.21 0.20 0.17 0.15 0.15 0.14 0.15 0.13 0.16 0.18 0.22 0.24 0.21 0.18 0.19 0.18 0.18 0.18 0.19 0.20 0.23 0.34 0.35 0.39 0.45 0.50 0.54 0.58 0.59 0.60 0.64 0.67 0.74
0.34 0.34 0.35 0.37 0.38 0.38 0.38 0.38 0.38 0.38 0.37 0.34 0.29 0.27 0.29 0.28 0.32 0.33 0.27 0.15 0.19 0.23 0.25 0.24 0.28 0.24 0.27 0.27 0.30 0.37 0.37 0.31 0.31 0.37 0.46 0.45 0.38 0.28 0.27 0.26 0.25 0.22 0.29 0.30 0.28 0.24 0.20 0.16 0.19 0.22 0.23 0.22 0.21 0.22 0.23 0.21 0.19 0.18 0.15 0.15 0.14 0.14 0.16 0.18 0.20 0.23 0.25 0.23 0.19 0.21 0.20 0.18 0.18 0.20 0.22 0.22 0.29 0.31 0.37 0.40 0.45 0.48 0.53 0.56 0.61 0.65 0.69 0.73
0.34 0.35 0.36 0.38 0.38 0.38 0.38 0.38 0.36 0.36 0.32 0.27 0.26 0.33 0.30 0.36 0.45 0.49 0.40 0.27 0.17 0.20 0.21 0.21 0.19 0.19 0.18 0.24 0.28 0.37 0.28 0.25 0.26 0.35 0.40 0.43 0.35 0.31 0.29 0.24 0.23 0.24 0.28 0.29 0.23 0.22 0.18 0.19 0.22 0.23 0.22 0.20 0.19 0.19 0.20 0.20 0.20 0.16 0.15 0.14 0.13 0.15 0.15 0.13 0.19 0.23 0.26 0.24 0.22 0.22 0.20 0.18 0.20 0.23 0.22 0.23 0.27 0.31 0.41 0.48 0.48 0.48 0.46 0.51 0.54 0.60 0.67 0.70
0.34 0.35 0.37 0.38 0.39 0.38 0.38 0.37 0.37 0.33 0.31 0.29 0.34 0.31 0.37 0.43 0.51 0.49 0.34 0.21 0.15 0.15 0.18 0.17 0.18 0.17 0.15 0.15 0.23 0.27 0.23 0.26 0.29 0.30 0.43 0.39 0.32 0.35 0.30 0.27 0.25 0.26 0.25 0.27 0.27 0.24 0.21 0.21 0.25 0.23 0.22 0.21 0.18 0.18 0.18 0.17 0.15 0.17 0.16 0.15 0.15 0.14 0.16 0.18 0.20 0.24 0.28 0.28 0.27 0.24 0.19 0.16 0.18 0.18 0.22 0.28 0.30 0.32 0.42 0.49 0.54 0.59 0.61 0.61 0.69 0.77 0.79 0.75
0.35 0.36 0.38 0.39 0.39 0.39 0.36 0.37 0.28 0.28 0.33 0.29 0.30 0.39 0.45 0.48 0.54 0.50 0.31 0.22 0.20 0.16 0.28 0.23 0.24 0.19 0.19 0.29 0.30 0.20 0.22 0.27 0.28 0.34 0.42 0.38 0.34 0.33 0.29 0.33 0.30 0.26 0.27 0.29 0.28 0.25 0.23 0.24 0.28 0.24 0.22 0.21 0.19 0.17 0.18 0.18 0.15 0.15 0.17 0.17 0.16 0.17 0.19 0.21 0.25 0.25 0.24 0.23 0.25 0.22 0.14 0.14 0.20 0.22 0.27 0.34 0.29 0.30 0.43 0.41 0.46 0.52 0.57 0.62 0.67 0.73 0.81 0.86
0.36 0.37 0.38 0.39 0.40 0.38 0.37 0.24 0.29 0.29 0.24 0.20 0.32 0.42 0.45 0.48 0.54 0.49 0.32 0.18 0.10 0.13 0.26 0.15 0.27 0.16 0.28 0.20 0.26 0.23 0.27 0.18 0.26 0.30 0.38 0.40 0.41 0.35 0.33 0.29 0.30 0.25 0.29 0.29 0.26 0.25 0.21 0.26 0.25 0.23 0.21 0.20 0.20 0.18 0.19 0.19 0.15 0.14 0.15 0.19 0.19 0.21 0.22 0.22 0.25 0.27 0.22 0.20 0.23 0.26 0.17 0.14 0.23 0.21 0.29 0.35 0.32 0.32 0.42 0.43 0.44 0.51 0.56 0.61 0.69 0.76 0.79 0.78
0.37 0.37 0.38 0.39 0.40 0.40 0.23 0.14 0.30 0.28 0.20 0.25 0.39 0.44 0.45 0.47 0.53 0.46 0.24 0.15 0.10 0.24 0.20 0.33 0.20 0.24 0.27 0.28 0.24 0.26 0.10 0.11 0.24 0.29 0.34 0.41 0.35 0.40 0.28 0.26 0.29 0.29 0.32 0.32 0.25 0.20 0.23 0.24 0.24 0.23 0.22 0.21 0.20 0.18 0.20 0.21 0.18 0.15 0.19 0.23 0.23 0.23 0.22 0.24 0.27 0.26 0.24 0.27 0.27 0.25 0.23 0.18 0.18 0.22 0.38 0.41 0.36 0.35 0.38 0.43 0.48 0.54 0.60 0.63 0.71 0.77 0.77 0.76
0.37 0.37 0.38 0.39 0.40 0.40 0.29 0.30 0.25 0.20 0.27 0.37 0.44 0.42 0.46 0.47 0.49 0.47 0.25 0.08 0.07 0.35 0.30 0.33 0.24 0.38 0.29 0.34 0.32 0.18 0.14 0.30 0.19 0.24 0.34 0.42 0.39 0.35 0.29 0.26 0.26 0.27 0.28 0.27 0.17 0.20 0.23 0.22 0.23 0.22 0.23 0.22 0.21 0.23 0.24 0.24 0.20 0.20 0.25 0.27 0.25 0.25 0.25 0.27 0.27 0.25 0.25 0.23 0.20 0.20 0.29 0.19 0.18 0.27 0.44 0.44 0.34 0.37 0.38 0.43 0.48 0.57 0.63 0.68 0.73 0.77 0.79 0.81
0.37 0.37 0.38 0.39 0.39 0.39 0.38 0.31 0.26 0.19 0.30 0.40 0.42 0.42 0.43 0.50 0.41 0.28 0.23 0.10 0.21 0.22 0.41 0.33 0.43 0.36 0.31 0.35 0.30 0.25 0.24 0.29 0.24 0.30 0.38 0.42 0.42 0.36 0.27 0.29 0.30 0.30 0.30 0.27 0.19 0.21 0.23 0.22 0.24 0.23 0.21 0.19 0.22 0.24 0.25 0.26 0.23 0.26 0.29 0.29 0.29 0.29 0.28 0.27 0.25 0.25 0.24 0.21 0.18 0.20 0.25 0.19 0.19 0.27 0.32 0.43 0.37 0.34 0.37 0.45 0.52 0.58 0.63 0.69 0.73 0.78 0.82 0.86
0.36 0.37 0.38 0.39 0.37 0.33 0.32 0.34 0.23 0.23 0.33 0.39 0.40 0.40 0.42 0.41 0.29 0.16 0.16 0.09 0.30 0.18 0.31 0.38 0.34 0.30 0.34 0.28 0.29 0.26 0.23 0.31 0.34 0.36 0.38 0.35 0.38 0.38 0.36 0.39 0.33 0.30 0.27 0.27 0.23 0.22 0.23 0.28 0.27 0.24 0.22 0.23 0.25 0.27 0.27 0.28 0.27 0.33 0.30 0.27 0.27 0.27 0.26 0.26 0.26 0.24 0.22 0.17 0.18 0.21 0.25 0.23 0.18 0.23 0.30 0.30 0.30 0.38 0.44 0.50 0.57 0.64 0.68 0.73 0.78 0.82 0.84 0.87
0.36 0.36 0.38 0.40 0.29 0.31 0.28 0.16 0.20 0.29 0.34 0.38 0.35 0.34 0.33 0.28 0.18 0.16 0.10 0.11 0.22 0.24 0.28 0.29 0.29 0.31 0.29 0.28 0.26 0.29 0.25 0.31 0.32 0.35 0.34 0.37 0.36 0.36 0.34 0.32 0.36 0.30 0.27 0.26 0.22 0.22 0.23 0.24 0.24 0.25 0.26 0.27 0.27 0.26 0.28 0.30 0.30 0.30 0.28 0.26 0.26 0.23 0.23 0.22 0.23 0.24 0.18 0.16 0.20 0.23 0.25 0.26 0.17 0.24 0.31 0.40 0.45 0.50 0.46 0.42 0.49 0.55 0.62 0.70 0.79 0.85 0.89 0.91
0.34 0.36 0.38 0.37 0.36 0.38 0.20 0.13 0.23 0.30 0.31 0.37 0.32 0.19 0.20 0.13 0.18 0.12 0.10 0.28 0.13 0.23 0.22 0.24 0.30 0.30 0.28 0.28 0.29 0.29 0.29 0.30 0.33 0.31 0.30 0.31 0.30 0.29 0.29 0.25 0.28 0.21 0.19 0.21 0.20 0.24 0.22 0.23 0.26 0.26 0.29 0.27 0.25 0.25 0.26 0.28 0.30 0.29 0.27 0.25 0.20 0.17 0.17 0.14 0.18 0.17 0.17 0.16 0.22 0.25 0.26 0.23 0.22 0.34 0.42 0.47 0.50 0.50 0.56 0.55 0.52 0.57 0.65 0.74 0.79 0.84 0.89 0.92
0.35 0.36 0.39 0.38 0.36 0.31 0.34 0.35 0.31 0.26 0.34 0.36 0.22 0.18 0.12 0.10 0.07 0.11 0.13 0.17 0.17 0.25 0.23 0.25 0.26 0.30 0.29 0.29 0.28 0.32 0.34 0.30 0.35 0.32 0.32 0.33 0.30 0.30 0.33 0.30 0.31 0.26 0.17 0.21 0.20 0.20 0.20 0.24 0.24 0.25 0.26 0.27 0.27 0.22 0.23 0.23 0.26 0.26 0.24 0.23 0.18 0.14 0.13 0.12 0.16 0.19 0.20 0.21 0.25 0.24 0.29 0.22 0.30 0.41 0.51 0.50 0.55 0.56 0.63 0.65 0.69 0.70 0.70 0.74 0.79 0.83 0.86 0.86
0.35 0.38 0.33 0.35 0.36 0.39 0.40 0.43 0.34 0.30 0.30 0.30 0.18 0.11 0.09 0.06 0.05 0.21 0.15 0.16 0.16 0.25 0.25 0.23 0.26 0.28 0.27 0.26 0.29 0.35 0.31 0.35 0.36 0.34 0.33 0.30 0.30 0.27 0.30 0.32 0.32 0.29 0.26 0.25 0.19 0.18 0.14 0.15 0.19 0.22 0.21 0.28 0.27 0.26 0.26 0.26 0.26 0.25 0.27 0.23 0.18 0.16 0.14 0.12 0.15 0.15 0.16 0.19 0.22 0.28 0.23 0.21 0.23 0.29 0.52 0.55 0.57 0.58 0.64 0.69 0.73 0.79 0.80 0.80 0.82 0.83 0.83 0.84
0.37 0.38 0.38 0.35 0.40 0.44 0.45 0.38 0.33 0.31 0.28 0.19 0.13 0.07 0.04 0.04 0.08 0.08 0.12 0.18 0.20 0.22 0.21 0.24 0.24 0.25 0.22 0.26 0.32 0.37 0.38 0.33 0.38 0.35 0.33 0.30 0.27 0.27 0.27 0.28 0.32 0.31 0.30 0.22 0.24 0.21 0.17 0.18 0.23 0.26 0.26 0.28 0.26 0.29 0.30 0.28 0.25 0.26 0.26 0.24 0.19 0.16 0.20 0.15 0.19 0.20 0.20 0.19 0.20 0.23 0.24 0.36 0.30 0.55 0.62 0.62 0.62 0.60 0.65 0.70 0.74 0.74 0.78 0.82 0.82 0.81 0.83 0.86
0.37 0.38 0.39 0.33 0.39 0.53 0.45 0.35 0.34 0.30 0.22 0.13 0.08 0.05 0.04 0.04 0.04 0.14 0.12 0.20 0.20 0.18 0.20 0.22 0.24 0.23 0.21 0.24 0.28 0.29 0.39 0.35 0.39 0.35 0.34 0.33 0.33 0.29 0.30 0.31 0.31 0.32 0.28 0.22 0.24 0.18 0.19 0.16 0.23 0.27 0.28 0.27 0.27 0.29 0.28 0.28 0.19 0.26 0.23 0.19 0.20 0.26 0.23 0.20 0.21 0.26 0.26 0.22 0.20 0.32 0.29 0.36 0.47 0.52 0.59 0.62 0.60 0.62 0.66 0.69 0.71 0.73 0.77 0.79 0.80 0.85 0.89 0.89
0.38 0.47 0.38 0.43 0.47 0.57 0.48 0.45 0.37 0.27 0.15 0.10 0.06 0.04 0.06 0.07 0.10 0.11 0.14 0.13 0.15 0.17 0.20 0.19 0.21 0.22 0.20 0.20 0.22 0.26 0.31 0.37 0.39 0.37 0.32 0.37 0.32 0.34 0.32 0.33 0.36 0.34 0.33 0.31 0.26 0.27 0.19 0.18 0.24 0.25 0.24 0.28 0.30 0.30 0.29 0.28 0.27 0.25 0.20 0.22 0.29 0.33 0.30 0.22 0.18 0.21 0.20 0.19 0.23 0.29 0.25 0.29 0.29 0.25 0.53 0.55 0.56 0.61 0.65 0.69 0.75 0.79 0.83 0.81 0.85 0.88 0.88 0.91
0.42 0.48 0.50 0.51 0.59 0.59 0.57 0.53 0.45 0.29 0.14 0.07 0.05 0.06 0.16 0.07 0.15 0.12 0.13 0.13 0.15 0.20 0.21 0.21 0.22 0.24 0.21 0.20 0.21 0.25 0.31 0.31 0.35 0.35 0.32 0.38 0.30 0.45 0.37 0.33 0.39 0.38 0.37 0.38 0.30 0.28 0.26 0.19 0.23 0.26 0.26 0.29 0.32 0.29 0.27 0.28 0.29 0.24 0.23 0.32 0.22 0.22 0.18 0.24 0.21 0.17 0.17 0.16 0.20 0.26 0.30 0.29 0.30 0.32 0.45 0.48 0.51 0.57 0.63 0.68 0.71 0.75 0.81 0.83 0.86 0.88 0.90 0.92
0.46 0.51 0.38 0.55 0.67 0.63 0.60 0.60 0.48 0.28 0.14 0.07 0.07 0.05 0.10 0.09 0.13 0.12 0.16 0.18 0.21 0.22 0.19 0.23 0.22 0.24 0.23 0.22 0.24 0.25 0.30 0.27 0.35 0.34 0.29 0.34 0.29 0.43 0.40 0.38 0.37 0.41 0.41 0.41 0.35 0.33 0.31 0.20 0.21 0.26 0.26 0.30 0.31 0.27 0.21 0.24 0.28 0.27 0.29 0.27 0.31 0.27 0.24 0.21 0.20 0.22 0.20 0.17 0.17 0.22 0.26 0.23 0.35 0.39 0.49 0.52 0.56 0.59 0.64 0.65 0.67 0.71 0.79 0.85 0.88 0.89 0.88 0.89
0.41 0.40 0.37 0.61 0.69 0.68 0.66 0.60 0.42 0.31 0.16 0.10 0.12 0.10 0.17 0.14 0.18 0.21 0.23 0.22 0.20 0.20 0.21 0.23 0.27 0.25 0.25 0.25 0.26 0.24 0.26 0.28 0.31 0.35 0.32 0.40 0.33 0.50 0.41 0.46 0.39 0.42 0.44 0.45 0.41 0.41 0.30 0.29 0.19 0.24 0.28 0.28 0.24 0.29 0.25 0.25 0.23 0.22 0.22 0.23 0.25 0.27 0.33 0.28 0.28 0.22 0.18 0.16 0.16 0.17 0.17 0.23 0.38 0.53 0.53 0.56 0.60 0.63 0.66 0.67 0.72 0.75 0.80 0.85 0.88 0.90 0.90 0.93
0.51 0.41 0.40 0.68 0.70 0.70 0.66 0.52 0.34 0.24 0.20 0.24 0.26 0.22 0.24 0.21 0.21 0.22 0.25 0.27 0.24 0.28 0.25 0.25 0.27 0.25 0.25 0.25 0.26 0.28 0.26 0.28 0.32 0.32 0.34 0.38 0.37 0.31 0.44 0.45 0.45 0.41 0.46 0.45 0.41 0.42 0.31 0.30 0.22 0.26 0.24 0.23 0.26 0.34 0.34 0.31 0.28 0.25 0.23 0.22 0.24 0.25 0.24 0.21 0.20 0.28 0.25 0.20 0.17 0.16 0.16 0.29 0.47 0.61 0.61 0.61 0.64 0.67 0.72 0.72 0.73 0.77 0.82 0.86 0.90 0.95 0.93 0.91
0.42 0.29 0.38 0.68 0.71 0.67 0.51 0.32 0.31 0.35 0.28 0.24 0.24 0.28 0.24 0.31 0.25 0.24 0.24 0.27 0.25 0.24 0.27 0.26 0.28 0.28 0.27 0.27 0.28 0.27 0.27 0.26 0.32 0.32 0.36 0.32 0.40 0.35 0.45 0.51 0.49 0.49 0.44 0.40 0.40 0.47 0.41 0.36 0.28 0.25 0.27 0.27 0.31 0.37 0.39 0.40 0.37 0.33 0.29 0.26 0.29 0.28 0.28 0.24 0.18 0.22 0.25 0.25 0.26 0.25 0.22 0.28 0.55 0.65 0.66 0.67 0.69 0.72 0.75 0.74 0.71 0.74 0.77 0.84 0.90 0.92 0.99 1.01
0.37 0.33 0.58 0.68 0.70 0.62 0.43 0.29 0.31 0.26 0.23 0.28 0.34 0.32 0.33 0.30 0.27 0.28 0.23 0.26 0.22 0.26 0.23 0.22 0.25 0.26 0.29 0.29 0.29 0.28 0.29 0.29 0.33 0.32 0.36 0.37 0.40 0.44 0.49 0.51 0.52 0.49 0.47 0.45 0.46 0.48 0.48 0.35 0.28 0.27 0.32 0.35 0.37 0.39 0.40 0.40 0.38 0.32 0.33 0.35 0.30 0.26 0.28 0.26 0.24 0.26 0.24 0.26 0.22 0.23 0.21 0.32 0.56 0.68 0.69 0.71 0.73 0.75 0.78 0.78 0.74 0.76 0.80 0.84 0.91 0.94 0.95 0.99
0.38 0.40 0.48 0.66 0.71 0.60 0.37 0.21 0.18 0.21 0.22 0.27 0.26 0.25 0.32 0.29 0.28 0.26 0.24 0.26 0.24 0.24 0.24 0.23 0.25 0.30 0.29 0.33 0.30 0.27 0.32 0.27 0.34 0.34 0.35 0.40 0.38 0.47 0.50 0.49 0.51 0.47 0.44 0.46 0.40 0.51 0.37 0.39 0.31 0.26 0.24 0.28 0.31 0.34 0.33 0.37 0.37 0.33 0.32 0.33 0.34 0.34 0.33 0.32 0.30 0.31 0.23 0.26 0.26 0.22 0.18 0.30 0.53 0.67 0.69 0.71 0.72 0.72 0.73 0.78 0.80 0.79 0.82 0.82 0.88 0.90 0.96 0.96
0.42 0.46 0.47 0.52 0.59 0.50 0.29 0.27 0.24 0.22 0.22 0.22 0.22 0.21 0.22 0.25 0.31 0.31 0.30 0.27 0.30 0.28 0.26 0.25 0.26 0.30 0.30 0.33 0.31 0.33 0.34 0.33 0.32 0.37 0.38 0.40 0.42 0.51 0.52 0.50 0.52 0.47 0.51 0.53 0.50 0.53 0.41 0.41 0.34 0.24 0.20 0.18 0.18 0.19 0.22 0.25 0.31 0.37 0.38 0.36 0.35 0.31 0.30 0.28 0.23 0.25 0.22 0.28 0.28 0.25 0.26 0.40 0.56 0.64 0.65 0.67 0.68 0.68 0.71 0.78 0.85 0.85 0.83 0.84 0.86 0.87 0.88 0.89
0.34 0.25 0.36 0.35 0.37 0.37 0.34 0.38 0.32 0.26 0.25 0.25 0.23 0.26 0.28 0.22 0.28 0.33 0.34 0.31 0.32 0.32 0.30 0.29 0.29 0.30 0.28 0.29 0.28 0.29 0.30 0.35 0.32 0.35 0.37 0.37 0.43 0.48 0.52 0.53 0.52 0.51 0.53 0.54 0.53 0.49 0.43 0.45 0.42 0.34 0.28 0.24 0.26 0.30 0.35 0.37 0.35 0.30 0.33 0.35 0.34 0.35 0.34 0.31 0.29 0.25 0.22 0.28 0.27 0.31 0.34 0.37 0.46 0.53 0.58 0.62 0.65 0.65 0.67 0.71 0.74 0.80 0.82 0.82 0.85 0.85 0.86 0.86
0.37 0.24 0.24 0.21 0.30 0.30 0.27 0.31 0.30 0.31 0.26 0.32 0.23 0.29 0.26 0.27 0.29 0.29 0.38 0.29 0.34 0.32 0.30 0.28 0.27 0.23 0.25 0.26 0.27 0.28 0.32 0.32 0.35 0.34 0.35 0.37 0.43 0.47 0.52 0.52 0.53 0.54 0.55 0.52 0.56 0.49 0.43 0.39 0.43 0.42 0.38 0.38 0.40 0.38 0.41 0.39 0.33 0.35 0.34 0.34 0.36 0.35 0.34 0.31 0.28 0.25 0.33 0.28 0.24 0.35 0.41 0.36 0.43 0.53 0.58 0.61 0.64 0.66 0.69 0.70 0.72 0.73 0.74 0.76 0.79 0.81 0.82 0.83
0.23 0.28 0.30 0.31 0.22 0.20 0.22 0.22 0.30 0.27 0.32 0.34 0.27 0.34 0.29 0.27 0.28 0.26 0.33 0.37 0.38 0.36 0.28 0.28 0.26 0.26 0.26 0.26 0.27 0.25 0.29 0.30 0.32 0.30 0.36 0.38 0.41 0.46 0.45 0.50 0.48 0.53 0.54 0.51 0.57 0.48 0.41 0.37 0.44 0.43 0.40 0.43 0.44 0.43 0.44 0.41 0.39 0.38 0.38 0.37 0.36 0.37 0.34 0.31 0.33 0.36 0.35 0.28 0.25 0.37 0.42 0.39 0.46 0.53 0.57 0.59 0.62 0.64 0.66 0.68 0.71 0.72 0.72 0.75 0.79 0.79 0.79 0.80
0.31 0.31 0.31 0.35 0.23 0.25 0.25 0.27 0.30 0.29 0.30 0.33 0.31 0.32 0.28 0.27 0.26 0.31 0.32 0.32 0.33 0.32 0.32 0.24 0.24 0.26 0.25 0.27 0.26 0.25 0.29 0.25 0.26 0.33 0.34 0.35 0.37 0.41 0.40 0.44 0.49 0.53 0.51 0.49 0.52 0.55 0.47 0.41 0.44 0.44 0.42 0.43 0.45 0.45 0.45 0.41 0.40 0.39 0.39 0.39 0.40 0.40 0.38 0.38 0.37 0.40 0.38 0.36 0.39 0.42 0.45 0.43 0.50 0.54 0.58 0.61 0.66 0.67 0.69 0.72 0.72 0.71 0.71 0.74 0.76 0.76 0.76 0.77
0.23 0.24 0.23 0.33 0.31 0.28 0.29 0.28 0.27 0.28 0.27 0.34 0.30 0.30 0.29 0.30 0.28 0.32 0.35 0.33 0.29 0.31 0.35 0.28 0.29 0.29 0.27 0.26 0.25 0.24 0.28 0.30 0.31 0.29 0.35 0.35 0.36 0.39 0.39 0.41 0.42 0.49 0.52 0.47 0.50 0.53 0.44 0.41 0.48 0.45 0.41 0.42 0.46 0.47 0.47 0.45 0.42 0.38 0.40 0.41 0.41 0.42 0.42 0.43 0.42 0.43 0.42 0.42 0.45 0.45 0.42 0.42 0.54 0.60 0.61 0.66 0.68 0.69 0.70 0.68 0.68 0.69 0.71 0.72 0.74 0.75 0.76 0.75
0.35 0.40 0.38 0.27 0.23 0.26 0.28 0.27 0.24 0.25 0.26 0.30 0.29 0.29 0.33 0.34 0.33 0.37 0.35 0.38 0.33 0.33 0.33 0.30 0.32 0.31 0.31 0.29 0.27 0.25 0.30 0.31 0.35 0.35 0.37 0.35 0.34 0.41 0.36 0.41 0.42 0.40 0.45 0.45 0.46 0.48 0.47 0.43 0.50 0.45 0.38 0.38 0.44 0.46 0.46 0.46 0.44 0.41 0.40 0.41 0.40 0.39 0.36 0.40 0.39 0.45 0.40 0.39 0.42 0.43 0.40 0.40 0.51 0.59 0.63 0.65 0.66 0.66 0.65 0.66 0.66 0.68 0.70 0.71 0.71 0.72 0.73 0.74
0.43 0.46 0.45 0.34 0.20 0.24 0.22 0.24 0.24 0.24 0.22 0.29 0.31 0.29 0.30 0.32 0.36 0.37 0.32 0.38 0.38 0.36 0.36 0.34 0.32 0.30 0.31 0.29 0.27 0.28 0.30 0.32 0.36 0.39 0.40 0.40 0.41 0.42 0.42 0.42 0.42 0.40 0.40 0.42 0.47 0.41 0.44 0.44 0.41 0.41 0.36 0.36 0.44 0.46 0.44 0.44 0.42 0.37 0.38 0.41 0.44 0.44 0.45 0.46 0.46 0.48 0.48 0.48 0.40 0.36 0.39 0.50 0.54 0.60 0.58 0.59 0.63 0.64 0.65 0.66 0.66 0.67 0.69 0.70 0.71 0.71 0.73 0.74
Wind_Speed
15 15 15 15 15 16 16 16 16 17 17 17 18 18 19 19 19 20 20 20 21 21 21 21 21 21 20 20 20 20 20 20 20 19 19 19 18 18 18 17 17 19 17 16 15 15 16 16 17 17 17 17 17 18 18 19 18 18 17 17 16 15 15 15 15 15 14 12 11 11 10 9 12 13 13 13 12 13 13 13 14 14 13 13 12 12 14 14
15 15 15 15 15 16 16 16 17 17 17 17 18 18 18 19 19 19 20 20 20 20 20 21 21 20 20 20 20 20 20 20 20 20 19 18 18 18 18 16 16 17 17 17 17 16 16 17 17 16 16 17 17 18 18 19 19 19 17 17 17 15 14 15 16 16 14 14 13 13 12 10 12 13 13 13 13 13 12 12 12 10 10 11 11 12 14 15
15 15 15 15 16 16 16 16 17 17 17 18 18 18 18 18 19 19 19 19 20 20 20 20 20 20 20 20 20 20 20 20 19 18 17 16 16 17 18 17 15 16 16 17 17 17 16 17 17 16 16 16 17 18 18 19 19 20 18 18 17 15 15 16 17 17 17 17 15 15 14 11 13 14 14 14 13 14 13 13 12 11 11 11 12 13 14 16
15 15 16 16 16 16 16 17 17 17 17 17 18 18 18 18 18 19 19 19 19 19 19 20 20 20 20 19 19 19 19 18 17 16 15 14 15 16 17 17 15 16 16 16 16 17 16 15 16 16 15 16 17 18 19 19 19 19 19 19 16 15 17 17 18 19 19 19 17 16 15 14 14 13 14 15 13 14 15 15 13 13 14 13 14 14 15 16
15 16 16 16 16 16 16 17 17 17 17 17 17 17 18 18 18 18 18 19 19 19 19 19 19 19 19 19 18 18 17 16 15 15 14 14 14 14 16 16 16 15 15 15 15 16 15 15 15 15 15 16 17 17 18 20 20 19 20 20 17 17 18 18 18 20 20 19 18 17 16 16 15 13 15 15 14 15 15 15 14 15 15 15 15 16 16 17
15 16 16 16 16 16 17 17 17 17 17 17 17 17 17 18 18 18 18 18 18 18 18 18 18 18 18 18 17 17 15 15 16 16 15 15 14 14 14 15 15 15 15 15 15 15 15 15 14 15 15 16 17 18 18 19 20 20 20 19 19 18 19 19 20 21 20 19 18 18 18 17 15 14 16 17 15 15 14 14 14 14 14 15 15 16 17 17
16 16 16 16 16 16 17 17 17 17 17 17 17 18 18 18 18 18 18 18 18 18 18 18 18 18 18 17 16 16 15 17 17 16 16 15 14 13 13 14 14 14 15 15 15 15 15 14 14 15 14 15 17 17 18 20 20 20 19 19 19 20 20 21 22 22 21 21 20 20 19 18 17 16 16 17 17 14 12 12 13 13 13 14 14 15 16 17
15 16 16 16 16 17 17 17 17 17 17 17 18 18 18 18 18 18 18 18 18 18 18 17 17 17 17 16 16 15 17 18 17 17 16 15 14 13 13 13 13 14 14 15 15 14 14 14 15 14 14 16 17 17 18 19 19 20 20 19 19 20 21 22 22 22 22 22 21 20 19 20 19 17 16 18 17 14 12 11 12 12 13 13 14 14 15 15
16 16 16 16 16 17 17 17 17 17 17 18 18 18 18 18 18 19 19 19 18 18 18 17 17 17 16 16 15 16 17 17 16 16 15 14 14 14 14 14 14 14 14 14 14 13 14 14 15 14 13 15 16 17 17 18 18 19 20 20 20 20 21 22 23 23 23 22 21 20 20 21 19 16 16 16 16 14 12 11 12 12 13 14 15 14 13 11
16 16 16 16 16 17 17 17 17 17 17 18 18 18 18 19 19 19 19 19 19 19 18 18 18 17 16 16 14 15 17 16 15 15 14 14 14 15 15 15 15 15 14 14 14 14 14 14 14 14 13 14 16 17 17 17 18 19 19 20 20 21 22 22 23 23 22 22 22 21 21 21 18 16 16 15 15 14 12 12 12 13 14 16 15 14 12 11
16 16 17 17 17 17 17 17 17 17 18 18 18 19 19 19 19 19 19 19 19 19 19 18 18 17 17 16 15 16 17 15 15 14 14 14 15 16 16 16 16 15 14 14 15 16 15 14 13 12 13 14 15 16 17 17 18 18 18 19 19 20 20 22 22 22 21 21 22 22 22 21 17 16 17 15 15 15 13 13 14 15 16 16 14 13 12 12
17 17 17 17 17 17 17 17 18 18 18 19 19 19 20 20 20 20 20 20 20 20 19 19 18 18 17 17 18 18 16 16 16 16 16 16 17 17 17 17 17 17 15 14 15 16 15 14 13 13 14 14 14 14 16 17 17 18 17 17 19 18 19 21 21 21 21 21 21 20 20 21 18 18 18 16 16 15 14 15 15 16 16 15 14 14 13 13
18 17 17 17 17 17 18 18 18 19 19 20 20 21 21 21 21 21 22 21 21 20 20 19 18 18 17 17 19 19 18 18 18 18 18 18 19 18 17 18 18 18 16 15 15 15 16 14 13 14 14 13 14 15 16 16 16 17 17 17 17 17 18 19 19 20 20 20 20 18 19 21 20 20 18 16 16 14 14 15 16 16 16 15 14 14 13 13
18 18 18 18 18 18 19 19 19 20 20 21 21 21 22 22 22 23 22 22 21 21 20 20 19 18 17 18 20 19 19 20 19 19 19 18 18 18 17 18 18 18 17 16 15 14 15 15 15 15 15 15 16 16 16 15 15 16 16 16 16 17 18 17 17 19 19 19 19 19 20 21 20 20 18 17 16 14 14 15 16 16 16 15 14 14 13 13
19 19 19 19 19 19 20 20 20 20 21 21 22 22 22 23 23 23 23 22 21 21 20 19 19 18 18 19 21 19 18 18 19 20 19 18 18 17 17 18 18 18 17 17 15 14 15 15 15 15 16 16 16 16 15 15 15 15 16 16 15 16 17 17 17 18 19 19 18 19 20 19 19 19 18 18 17 15 14 15 16 18 16 15 15 15 14 13
19 19 20 20 20 20 20 21 21 21 22 22 22 23 23 23 24 23 23 22 22 21 20 19 19 18 17 18 18 17 17 17 18 18 18 19 18 18 17 17 18 17 17 17 16 15 15 15 16 16 17 16 15 14 14 15 15 14 15 16 16 15 15 15 16 17 18 19 18 19 20 19 19 18 17 19 18 16 15 15 18 18 17 16 15 15 14 13
20 20 20 20 21 21 21 21 22 22 22 22 23 23 23 24 23 22 21 21 21 21 20 19 18 18 19 18 18 17 16 16 16 15 17 18 19 18 16 16 17 17 17 17 16 16 16 15 16 16 16 15 14 13 13 15 16 15 14 15 15 15 15 15 15 15 15 17 18 19 21 21 21 18 18 20 20 17 16 17 19 18 17 17 16 16 15 14
21 21 21 21 21 21 21 22 22 22 22 23 23 23 23 22 21 20 20 20 20 19 19 19 18 17 18 17 17 17 16 15 15 15 16 17 18 18 17 16 16 16 16 16 16 16 16 16 16 15 15 15 14 13 14 15 14 14 15 15 15 15 16 16 15 15 15 16 18 19 20 22 23 20 19 22 21 18 18 18 19 18 18 18 17 17 16 16
21 21 21 21 21 21 21 22 22 22 22 22 22 22 21 20 19 19 19 19 19 18 19 19 18 17 17 17 17 17 17 17 17 16 15 15 16 17 17 17 16 16 15 15 16 16 16 16 15 16 16 16 16 15 16 16 14 14 15 15 15 15 16 16 16 16 15 17 19 20 21 21 22 21 19 22 22 19 19 19 18 17 18 18 18 18 17 17
21 21 21 21 21 21 21 21 21 21 22 21 21 20 19 19 19 20 20 21 21 21 21 21 20 21 21 21 19 18 18 18 17 16 14 14 15 16 17 18 17 16 15 15 16 16 16 16 17 17 16 16 17 17 16 16 14 15 15 15 15 15 16 16 15 16 15 16 19 19 20 20 21 21 19 21 21 19 20 19 18 18 18 18 18 18 18 18
21 21 21 20 20 20 20 20 20 20 21 20 19 18 18 18 19 20 21 22 23 23 24 24 23 24 23 22 21 19 17 17 17 16 14 14 15 15 16 17 16 16 15 15 15 15 15 17 17 16 16 17 17 17 16 16 15 15 16 16 16 16 16 16 15 16 15 15 17 18 19 21 21 19 18 20 21 20 21 20 19 19 18 18 18 18 19 18
20 20 20 20 20 20 20 20 20 20 19 18 18 17 17 18 18 20 20 21 22 23 24 25 24 25 24 23 23 21 18 17 17 17 15 14 15 15 15 16 16 16 15 14 14 14 15 17 17 16 16 17 16 15 15 16 16 15 15 15 16 15 15 15 15 15 14 13 16 16 18 20 20 17 17 21 22 22 23 22 22 21 19 18 18 19 19 19
19 19 19 19 20 20 19 20 20 19 17 17 18 17 17 18 18 19 18 19 20 21 23 24 24 25 24 23 23 22 20 18 17 18 16 15 15 15 15 15 16 16 15 15 15 15 15 15 16 16 15 15 16 15 15 15 15 15 15 14 16 15 14 14 13 13 14 14 15 15 17 18 16 15 16 18 20 20 20 21 22 22 21 20 19 19 20 20
19 19 19 19 19 19 19 20 19 17 16 17 18 17 17 18 18 18 17 17 18 17 20 22 23 24 23 21 21 21 21 19 18 18 17 16 15 15 15 14 15 16 16 16 16 16 17 15 12 12 13 14 15 15 15 15 15 16 16 15 15 15 15 15 14 13 14 14 13 13 13 13 13 13 14 15 17 17 17 18 20 20 20 18 17 18 20 20
19 18 19 19 19 19 19 18 16 15 16 17 17 17 17 18 18 17 16 16 16 14 15 18 19 20 20 19 20 20 19 18 19 19 17 17 16 14 14 14 14 16 16 15 15 16 17 15 11 10 12 13 14 15 15 15 15 15 16 16 16 16 16 16 14 13 12 13 12 9 9 11 11 11 13 14 14 15 16 17 19 20 19 18 16 17 19 20
19 19 18 18 18 19 18 15 14 15 16 16 15 16 16 17 17 15 14 14 14 12 12 13 14 15 16 18 18 17 16 17 19 20 18 18 17 14 13 14 14 15 15 14 14 15 15 13 12 12 12 12 13 14 14 14 14 15 15 16 16 16 15 15 15 14 13 13 12 9 9 12 12 11 13 14 13 14 15 15 17 18 19 18 17 18 20 19
19 18 18 17 17 17 15 14 15 15 14 13 14 15 16 16 15 13 12 12 12 11 10 10 11 12 13 16 18 16 15 15 16 19 20 18 17 16 14 14 13 13 14 13 14 14 13 13 12 12 11 12 12 12 13 13 13 14 13 13 14 15 15 15 14 14 14 13 12 10 10 12 12 12 13 13 13 14 14 15 16 17 18 18 18 18 20 19
18 18 17 17 17 16 16 15 15 14 13 13 14 15 15 15 13 11 9 9 10 9 8 9 10 11 11 14 17 16 14 13 13 17 20 19 17 16 15 15 14 13 13 14 14 13 13 13 13 12 11 11 11 11 11 12 12 14 13 12 13 14 14 14 13 13 13 11 12 11 10 10 11 13 12 12 13 14 15 16 16 17 18 18 18 19 19 18
18 17 17 16 16 17 16 15 14 13 13 13 13 14 14 13 12 10 8 8 9 8 7 7 8 9 10 12 16 16 14 12 11 13 17 19 18 16 15 15 14 13 13 14 16 14 13 14 13 11 11 11 12 11 11 12 13 13 12 12 13 12 12 12 12 12 11 10 12 13 10 10 11 12 12 12 13 14 14 15 15 16 17 17 18 19 19 17
17 16 16 16 16 16 14 14 15 14 13 13 14 14 13 12 10 9 9 9 8 8 7 7 7 8 9 11 13 14 14 12 10 11 14 15 17 16 14 14 13 12 13 14 15 15 13 13 13 12 12 12 12 12 11 14 14 11 10 12 13 11 11 12 12 11 10 11 13 14 12 11 10 11 13 12 13 14 14 14 14 15 16 17 18 18 18 16
16 16 16 16 15 15 14 13 13 13 13 13 13 13 11 10 9 9 10 10 9 9 8 7 7 7 8 11 13 14 14 13 11 10 12 13 15 15 13 13 13 12 13 14 15 14 14 14 13 13 14 13 12 12 11 13 13 11 10 12 12 12 11 11 11 11 11 12 13 13 13 11 10 11 12 11 11 13 14 14 15 16 17 18 17 16 16 15
16 16 16 16 16 15 14 13 13 12 12 12 12 11 10 10 10 11 11 10 9 9 9 9 9 8 10 12 14 15 14 14 13 12 12 13 14 15 14 14 14 13 13 15 15 14 15 15 14 12 14 13 12 12 11 11 12 11 11 11 10 10 9 10 11 12 12 13 12 12 12 11 11 11 11 10 10 12 14 13 13 15 16 16 16 15 16 15
15 16 16 15 15 14 14 14 14 13 12 11 10 10 10 9 10 12 12 10 10 10 10 11 11 10 10 10 12 15 14 14 15 14 13 13 14 16 15 14 14 13 13 14 14 14 15 14 13 12 12 13 13 12 12 11 12 12 13 12 11 10 9 10 12 11 12 13 12 11 12 11 11 11 10 10 11 13 13 12 12 14 15 16 16 17 17 17
15 15 14 13 13 14 14 14 14 13 11 10 10 9 10 10 11 11 11 12 13 12 11 10 11 11 9 9 11 13 14 14 14 14 13 13 14 16 16 15 14 13 13 13 13 14 14 13 13 13 12 11 12 12 12 12 11 12 12 12 12 12 11 11 12 12 12 12 11 10 11 11 12 12 11 11 10 10 11 11 12 13 13 14 16 17 17 16
14 13 12 12 12 12 13 12 12 12 11 10 9 9 11 12 11 10 10 12 12 12 12 11 11 11 9 9 10 11 13 15 15 13 14 15 15 16 16 16 16 14 13 14 14 14 14 14 14 13 12 11 11 11 11 10 11 12 12 11 12 13 12 11 11 12 12 11 10 10 11 12 12 12 11 9 8 6 7 9 11 11 11 11 12 14 14 14
12 11 10 10 10 10 10 10 10 11 11 9 8 10 12 12 12 11 11 11 12 12 12 11 11 10 9 9 10 10 12 15 15 14 14 15 15 16 15 15 16 16 15 14 14 13 13 15 14 12 12 12 12 12 11 12 12 11 12 13 13 12 12 11 11 10 10 11 11 11 11 11 11 11 10 9 8 7 7 8 9 9 10 10 10 11 12 12
9 9 8 9 9 8 7 8 8 9 10 9 9 12 13 13 12 12 12 12 13 13 12 11 11 11 10 10 11 11 11 14 15 15 15 14 14 16 16 16 16 17 17 15 14 14 14 14 14 12 12 13 13 13 12 12 13 12 13 15 13 11 11 12 11 9 9 11 12 11 12 12 11 11 11 10 9 9 9 9 9 9 10 11 10 10 11 11
8 7 7 8 8 7 6 6 7 8 8 8 10 12 12 13 13 13 13 13 14 13 12 12 13 12 11 10 11 11 11 13 15 16 15 15 14 15 16 16 15 15 17 16 15 15 14 14 14 13 13 12 11 12 12 12 13 13 13 13 12 11 12 12 11 10 10 12 12 11 12 12 12 11 11 11 11 12 11 10 10 10 10 11 11 11 11 10
7 6 6 7 7 6 6 6 7 8 8 9 11 12 12 13 14 14 14 14 13 13 13 14 13 12 12 12 12 12 11 12 14 15 15 15 15 14 14 16 15 14 14 15 14 14 13 14 14 14 13 11 9 11 12 13 13 13 13 12 12 12 12 12 13 12 12 12 12 12 12 13 13 12 12 12 13 13 12 12 11 11 11 11 12 13 12 11
6 6 6 6 6 6 6 6 6 7 8 9 11 11 12 13 14 15 15 14 14 13 14 14 14 14 14 13 13 12 11 12 13 14 15 15 15 15 15 15 15 15 14 13 13 13 12 13 15 14 12 11 10 11 12 13 14 14 14 14 14 13 12 12 12 12 12 12 12 12 12 13 13 12 11 12 13 13 13 12 12 11 10 11 13 14 14 12
5 5 6 6 6 6 5 6 7 7 8 9 10 11 12 12 13 14 15 15 15 15 15 15 15 16 15 14 13 13 12 12 12 12 13 14 15 15 16 17 16 16 15 13 13 13 12 13 14 14 13 12 13 12 11 12 13 14 15 15 15 15 14 12 11 12 11 12 12 12 12 13 12 12 11 11 12 12 12 12 11 11 10 12 13 14 14 13
5 5 5 6 7 6 5 6 7 8 8 10 11 11 12 13 13 14 14 15 15 15 15 16 16 16 16 16 15 13 12 12 13 13 13 13 13 13 15 16 16 16 16 15 15 14 13 12 12 14 14 14 15 13 11 11 12 12 13 14 14 15 15 14 13 12 11 11 11 10 10 11 11 11 10 10 11 11 10 11 11 10 10 11 12 12 12 11
4 4 4 5 6 6 5 7 8 8 9 10 11 12 13 13 13 14 14 14 15 15 15 15 16 15 16 16 15 14 12 12 13 13 13 13 13 12 13 14 14 14 15 16 16 16 15 12 12 14 14 14 14 13 12 12 11 11 11 13 14 14 15 15 15 13 12 12 11 10 10 11 11 10 9 9 9 9 9 10 10 10 10 10 9 9 9 9
3 4 4 4 5 6 6 7 8 8 9 10 11 12 13 13 13 14 15 15 15 15 15 15 16 15 15 16 15 15 13 12 12 12 13 13 13 12 12 12 12 12 14 15 16 17 17 15 14 13 12 13 13 13 13 13 12 12 12 12 13 13 13 14 14 12 12 13 12 11 11 12 11 10 9 9 8 8 9 9 10 11 11 10 9 7 7 7
3 3 4 4 5 5 6 6 7 8 9 10 10 11 12 13 14 15 16 16 16 16 16 16 16 15 15 15 15 15 13 13 13 12 12 13 12 12 10 10 12 12 12 13 14 15 16 16 16 15 14 14 15 14 14 13 13 14 13 13 12 12 13 14 14 13 13 13 12 11 12 12 12 10 9 8 8 8 8 8 9 9 9 9 8 6 6 7
3 3 4 5 5 5 5 6 6 7 8 9 9 10 11 11 13 14 14 15 16 16 16 16 15 15 14 14 14 15 14 13 14 13 12 12 12 13 11 10 11 11 11 10 11 13 14 15 17 17 16 16 16 16 15 14 14 14 14 14 13 12 12 13 13 14 15 13 11 12 13 13 13 12 10 10 9 9 9 8 7 6 6 6 5 5 5 6
3 4 4 4 5 5 5 6 6 7 8 8 8 9 9 9 11 11 12 14 15 16 16 16 15 14 15 14 14 15 14 14 14 14 14 13 12 13 12 11 10 10 10 10 11 13 14 14 16 16 15 14 14 15 14 14 15 14 14 14 14 13 12 11 11 13 15 13 12 13 13 13 13 12 11 11 10 10 9 8 7 6 5 5 5 4 4 4
3 3 3 3 4 4 5 6 6 7 7 7 6 7 8 9 9 9 11 12 13 15 16 15 14 14 15 15 15 15 14 14 14 14 14 14 13 12 12 12 11 10 10 10 10 12 13 14 16 16 15 14 13 12 12 13 14 14 13 13 14 14 13 12 12 14 14 14 14 14 13 13 13 12 11 11 10 10 9 8 7 6 5 5 4 3 3 3
2 2 3 3 3 3 4 6 6 7 7 6 6 7 7 8 8 8 10 10 11 12 14 14 14 14 14 14 14 15 15 15 15 15 15 14 14 13 12 13 12 11 10 10 10 11 12 13 15 16 15 14 14 13 12 11 13 13 13 13 13 13 13 13 14 14 12 12 13 13 12 12 12 12 12 11 10 10 9 8 7 6 6 4 3 3 3 3
1 1 2 2 2 3 5 6 6 6 6 6 5 5 5 5 5 5 7 8 10 11 11 12 13 13 13 13 13 15 16 16 16 17 16 14 14 13 12 13 12 11 10 10 11 11 11 12 14 14 14 14 15 15 14 13 13 12 12 12 13 13 14 14 15 14 12 11 11 12 12 12 12 12 12 11 10 10 9 8 8 8 8 6 5 5 5 4
1 1 1 1 2 4 5 5 5 5 5 5 4 4 4 4 4 3 3 6 8 10 10 11 13 12 12 12 12 15 17 18 19 19 18 17 16 15 14 13 12 11 11 11 11 10 10 11 12 12 13 13 14 15 15 15 15 14 13 12 13 14 15 16 16 16 16 15 14 13 14 14 13 13 12 11 10 9 9 9 9 9 9 8 6 6 6 5
1 1 1 1 2 4 5 5 5 5 5 5 3 3 4 4 5 3 1 3 6 8 9 11 11 11 12 12 12 14 17 18 20 20 19 18 18 17 17 16 14 12 12 11 10 10 9 10 10 11 11 11 12 14 15 14 14 15 15 15 15 15 15 15 16 16 17 17 16 16 16 14 14 14 13 11 10 9 9 10 9 10 10 9 7 7 6 6
Wind_Direction
271 271 271 271 272 272 272 272 272 272 272 272 272 272 272 271 271 271 271 271 271 272 272 273 273 274 275 276 276 277 278 278 278 274 268 266 264 260 257 259 255 247 248 253 253 253 253 253 252 250 249 249 248 245 243 242 241 242 242 241 242 240 233 223 222 224 225 234 240 250 259 251 249 245 238 237 235 232 238 251 248 249 252 237 231 221 213 212
272 272 272 272 273 273 273 273 273 273 273 273 273 273 273 273 273 273 273 273 272 272 272 273 273 274 275 276 276 277 277 276 275 270 265 265 263 257 254 256 254 245 247 253 252 251 251 252 250 248 247 248 248 244 242 242 239 240 240 241 240 236 230 223 225 228 228 235 243 253 253 246 250 247 241 239 242 241 241 252 249 241 239 230 223 215 213 213
273 273 273 273 273 273 274 274 274 274 274 274 274 274 274 274 274 274 274 274 274 273 273 273 272 273 274 274 275 277 276 274 272 265 262 266 264 257 250 250 251 245 248 253 252 250 252 252 247 245 246 247 247 242 241 242 239 240 239 241 239 233 235 231 230 233 234 238 243 250 247 247 255 250 243 236 240 247 242 244 243 233 225 220 218 216 217 216
274 274 274 274 274 274 274 275 275 275 275 275 275 275 275 274 274 274 274 275 274 274 273 273 272 272 273 273 275 275 275 272 266 259 260 267 267 258 247 245 248 247 250 254 252 250 252 251 246 245 245 247 247 243 242 241 241 240 237 240 238 234 237 231 230 235 239 240 241 245 246 249 252 247 240 233 238 250 247 241 234 226 218 215 218 219 220 219
275 275 275 275 275 275 275 275 275 276 275 275 275 275 275 275 275 275 275 275 275 274 274 273 272 272 272 273 273 273 272 268 260 257 262 268 267 257 247 244 246 247 249 253 251 248 250 250 246 246 247 247 246 244 245 241 240 242 241 241 239 235 235 232 233 238 241 243 242 243 243 245 247 245 236 230 236 244 245 240 231 223 217 215 217 220 222 221
275 276 276 275 275 275 275 275 275 275 275 275 275 275 275 275 276 275 275 275 275 274 274 274 273 272 272 272 270 268 265 261 259 260 264 267 263 254 247 243 244 246 248 249 249 246 246 247 246 247 247 247 244 242 245 242 239 243 245 242 239 235 231 234 238 239 241 242 241 240 244 248 248 247 238 232 238 243 245 239 230 225 220 217 217 219 222 223
276 276 276 276 276 276 276 275 275 275 275 275 275 275 275 275 275 275 274 274 274 275 274 274 274 273 273 272 267 265 262 259 260 260 264 264 257 250 242 241 243 245 246 245 246 244 242 243 245 246 246 247 244 242 244 244 240 241 245 243 241 237 233 236 239 239 240 239 241 244 248 250 247 247 241 236 241 246 245 235 226 223 220 219 220 222 223 224
277 277 276 276 276 276 276 276 275 275 275 275 275 274 274 274 274 274 274 274 274 274 274 273 274 273 273 270 265 266 263 259 259 259 260 257 253 248 240 242 245 244 245 243 242 241 240 240 242 244 246 247 244 242 243 244 244 241 242 243 240 239 236 238 239 239 240 239 242 245 243 245 245 244 241 240 245 244 236 228 221 218 219 220 221 223 225 227
279 278 278 277 277 277 277 277 276 276 276 275 275 274 274 274 273 274 273 273 273 273 273 272 273 273 272 268 265 266 262 258 259 258 255 251 251 248 242 244 245 244 245 243 241 239 238 239 240 241 244 246 244 245 242 241 244 240 239 241 240 239 237 238 239 238 239 238 240 241 238 243 245 241 242 245 243 236 225 220 216 216 219 221 221 222 224 226
278 278 279 279 278 278 278 277 277 277 277 276 276 275 275 274 273 273 272 272 272 272 272 271 271 271 269 267 264 263 261 259 259 256 251 248 249 247 245 246 243 243 245 243 239 236 237 237 238 240 244 247 244 244 240 237 243 241 240 242 240 240 238 236 237 237 238 239 238 237 237 243 245 238 240 241 234 228 219 217 220 221 222 222 223 223 223 223
277 278 278 278 278 278 278 278 278 278 278 278 278 277 277 276 274 273 272 272 271 271 270 269 270 269 267 266 260 258 261 258 255 253 249 246 248 248 248 248 244 242 243 243 240 236 236 235 236 241 246 249 247 246 243 238 243 245 245 246 243 241 240 235 234 235 236 236 235 234 237 243 243 236 236 231 226 225 220 221 225 226 227 226 225 226 228 229
277 277 277 277 278 278 278 278 278 278 279 279 278 278 278 277 276 275 273 272 270 269 268 268 268 266 267 265 259 257 261 258 254 254 251 248 250 251 252 250 245 241 241 243 243 237 233 233 236 241 247 250 249 250 247 244 246 247 246 247 246 244 240 234 231 232 232 233 234 232 238 243 238 238 238 227 223 227 226 226 227 229 231 230 227 228 231 232
277 277 277 277 277 278 278 278 279 279 279 279 279 279 278 277 276 275 273 271 269 267 267 266 265 265 265 263 259 259 261 260 257 257 253 250 251 252 252 250 245 242 242 243 244 237 231 233 235 240 249 252 248 249 251 251 249 247 245 244 246 246 241 234 230 232 231 233 232 229 238 242 239 242 239 226 222 226 228 228 228 229 230 229 227 225 226 228
277 277 277 277 277 278 278 279 279 280 280 280 280 279 278 277 276 274 272 270 268 266 265 263 264 263 261 260 262 264 262 260 258 255 252 249 250 251 250 248 244 241 240 243 244 238 232 234 239 245 251 251 249 252 254 252 248 246 247 244 243 241 240 237 234 232 232 235 229 226 237 240 240 244 234 224 223 221 226 229 228 226 225 227 225 222 222 226
277 277 277 277 278 278 279 279 280 280 281 281 280 280 279 278 276 273 270 268 266 265 263 262 262 262 262 263 264 265 261 258 255 251 247 243 244 247 246 243 242 239 237 240 241 238 234 237 243 247 251 251 250 251 252 251 248 246 246 246 243 236 238 242 238 231 231 236 229 225 237 240 241 243 231 224 225 223 225 228 226 223 222 223 221 220 221 224
277 277 277 277 278 279 279 280 280 281 281 281 281 281 280 278 275 271 268 265 264 262 261 260 259 259 261 263 263 263 260 255 254 251 243 237 237 242 243 241 240 237 235 238 238 238 239 242 246 247 248 249 246 245 251 254 251 246 243 244 244 239 238 240 239 234 231 236 234 230 236 239 241 241 231 225 227 229 230 228 225 223 221 219 218 218 219 220
276 277 277 278 279 280 280 280 281 280 280 280 280 281 280 278 273 268 266 265 263 260 258 258 258 259 259 259 261 262 259 254 253 252 243 235 234 238 239 239 238 234 233 237 238 238 241 244 247 248 247 245 241 241 249 251 247 247 245 243 242 240 238 237 238 238 233 233 237 237 237 238 240 240 231 227 229 231 231 228 224 223 221 218 217 217 216 218
276 276 277 279 279 280 280 280 280 279 280 280 281 281 278 274 270 267 266 265 262 259 258 257 256 258 257 255 257 256 255 255 255 254 247 237 232 234 236 236 235 231 232 236 236 236 240 243 245 247 246 242 238 237 241 242 238 240 242 241 243 241 238 236 235 236 236 235 236 239 241 240 241 239 231 230 231 231 229 225 222 222 218 216 217 218 218 219
276 277 278 279 280 280 280 280 279 279 280 280 280 279 273 271 270 268 267 264 260 258 259 255 250 252 254 254 256 255 255 258 258 254 246 237 232 233 235 234 232 229 230 234 236 234 236 243 245 244 243 238 237 236 235 237 235 236 236 235 240 242 239 236 233 234 238 241 240 241 244 243 242 239 233 232 232 230 227 223 221 220 217 216 218 219 220 220
276 277 279 279 280 280 280 280 279 280 281 280 279 277 271 273 272 269 270 267 261 259 259 255 251 253 256 258 257 257 258 258 254 249 243 237 231 231 233 232 231 230 228 230 236 237 234 240 244 240 236 234 236 237 235 238 240 241 240 239 240 241 242 237 234 237 240 244 244 241 245 247 244 242 235 230 228 227 224 222 221 218 217 217 218 221 221 222
277 278 279 279 280 280 280 280 280 281 281 277 277 275 272 274 273 271 273 269 264 260 259 256 253 252 254 255 253 253 256 255 250 246 243 238 228 228 232 229 228 231 230 228 235 241 237 238 241 237 233 234 237 236 235 238 240 240 241 243 244 240 241 239 236 241 242 243 246 246 250 250 246 245 237 226 224 224 220 219 219 216 217 218 217 219 221 224
278 278 279 279 280 281 281 280 280 280 278 274 274 272 272 275 275 275 273 270 267 260 257 256 254 253 252 251 250 247 248 249 248 246 240 234 227 228 231 227 226 231 232 229 234 243 241 240 242 238 234 236 241 238 233 236 238 238 238 241 243 240 243 242 238 241 240 241 248 253 255 252 248 243 232 223 222 222 218 215 213 212 215 218 217 219 220 222
278 278 279 279 280 281 281 281 280 277 272 271 272 271 273 276 278 279 274 271 271 262 257 255 252 251 249 247 246 240 239 239 241 242 237 230 228 227 227 227 227 228 230 229 230 237 240 241 240 237 235 235 241 239 233 236 237 235 234 236 240 239 240 240 237 239 242 246 251 258 260 254 246 235 227 226 225 224 221 218 215 213 214 216 219 220 218 217
278 279 279 280 281 281 281 282 278 271 269 272 272 270 273 277 279 279 272 271 274 266 258 254 249 249 245 243 240 234 234 234 234 238 235 229 228 228 228 227 226 227 229 228 228 234 237 237 233 232 231 229 236 238 231 233 237 236 231 231 237 237 235 236 239 243 248 251 250 258 263 249 235 225 226 234 230 224 222 217 217 219 217 217 220 221 216 214
278 278 279 280 281 281 283 280 272 268 272 273 270 270 274 277 279 278 272 275 278 273 265 256 249 247 241 237 235 232 233 234 232 233 232 227 225 227 230 228 225 227 228 226 227 235 237 234 228 230 231 227 231 236 230 227 235 239 234 228 230 234 236 238 241 244 247 251 247 251 253 238 234 228 228 235 229 223 222 216 216 219 218 217 218 217 212 212
278 278 279 280 280 283 282 273 269 274 275 269 267 270 273 276 279 276 272 278 278 273 270 258 247 242 236 233 230 228 233 237 233 229 229 227 223 223 228 229 228 227 226 226 230 235 233 225 221 225 227 225 230 236 231 222 229 240 234 225 224 230 236 237 237 237 240 246 245 244 234 229 235 236 233 234 223 218 221 219 217 217 215 215 214 212 209 209
278 278 279 278 279 282 277 268 273 277 270 266 269 271 273 276 278 273 272 279 276 269 266 258 244 236 235 229 219 219 232 237 231 227 224 223 222 221 225 228 228 228 226 226 233 232 224 218 218 220 223 226 230 235 227 214 222 236 228 217 221 229 233 232 231 233 238 245 248 246 228 222 230 232 232 228 214 212 218 218 220 218 214 212 210 209 208 209
278 277 278 277 276 276 271 270 275 272 265 268 272 270 271 274 272 268 269 273 270 266 264 254 238 234 236 224 213 218 231 230 229 228 220 217 220 220 224 227 225 229 227 221 227 229 218 216 217 217 224 228 227 228 219 209 222 233 223 217 226 229 229 230 230 233 239 241 245 245 227 219 229 229 226 222 211 212 217 217 218 217 214 212 210 211 212 213
278 278 277 276 275 273 269 267 268 266 266 271 273 269 268 269 266 263 262 261 261 263 261 248 238 237 229 217 217 225 231 227 229 225 213 213 220 220 225 226 222 229 229 221 225 227 218 216 216 217 225 228 227 229 218 212 226 231 223 227 233 231 231 232 227 230 236 233 233 238 226 216 227 228 220 218 216 217 219 219 218 216 215 214 213 214 216 217
279 277 276 274 273 270 268 265 264 264 267 271 272 267 264 263 260 257 254 253 252 254 251 240 243 243 223 216 223 225 224 226 226 213 208 213 217 220 225 224 222 227 231 229 228 227 222 222 223 223 224 225 229 233 223 216 224 228 224 228 234 236 236 235 230 225 227 229 230 232 222 210 220 225 217 216 222 221 219 221 222 221 219 217 216 216 218 221
279 277 275 271 268 267 267 265 262 261 265 269 268 262 256 256 255 247 246 248 246 248 249 240 243 247 230 224 224 221 218 222 220 207 208 213 213 219 225 224 224 227 232 233 230 230 231 230 232 229 226 225 230 237 232 222 222 225 227 225 229 238 236 232 231 220 215 224 231 229 218 207 212 221 219 224 230 223 218 220 220 220 219 216 215 218 221 225
280 277 274 269 264 262 261 260 260 262 265 267 264 255 245 250 252 243 245 252 243 242 250 250 250 250 243 234 225 221 219 220 221 214 213 215 215 218 220 220 221 224 230 229 227 234 234 231 234 232 229 225 227 238 239 226 217 217 223 220 220 230 230 226 224 216 215 221 228 228 216 210 215 219 220 230 234 225 223 228 224 218 213 211 213 216 219 221
281 278 274 267 261 257 257 258 260 262 264 261 259 251 240 245 250 244 245 245 238 242 252 257 256 251 248 240 226 221 221 223 225 222 219 218 217 220 223 223 220 222 228 224 222 231 233 235 235 232 234 227 220 229 232 224 216 214 218 216 215 217 219 226 223 218 220 220 224 228 218 218 224 222 226 238 238 225 223 231 229 218 210 208 210 211 212 216
282 278 272 263 257 256 257 258 257 256 256 255 253 247 236 240 248 247 245 242 242 248 253 257 256 250 246 240 228 220 220 226 227 222 222 221 219 222 225 226 223 224 228 224 221 222 223 231 228 221 230 228 219 221 221 218 218 219 218 214 215 214 213 223 221 216 220 218 222 228 220 221 224 227 235 242 239 223 216 222 220 215 211 209 209 211 214 222
283 276 268 258 256 259 257 254 251 249 250 251 251 242 234 239 247 247 245 245 246 249 253 254 246 241 244 238 228 222 219 223 225 222 223 223 221 223 224 226 225 222 224 224 225 222 220 227 227 221 226 227 224 224 215 212 221 226 220 212 219 220 215 222 219 214 216 214 220 226 223 224 223 229 238 237 236 228 214 216 212 209 210 210 214 219 225 231
280 273 261 253 255 259 254 247 246 245 245 247 248 243 239 242 244 242 245 249 249 251 254 250 234 231 244 240 231 233 226 222 224 225 227 225 224 227 227 229 226 221 220 222 223 222 221 228 230 228 232 229 227 225 218 217 222 225 222 218 223 222 213 215 220 222 217 211 221 226 228 232 229 231 237 232 233 233 225 222 214 209 212 212 217 223 228 233
278 270 256 250 253 253 247 243 243 243 244 246 245 245 245 246 244 242 249 253 251 250 244 238 233 231 241 242 238 241 234 226 225 225 227 228 226 226 228 230 228 223 221 221 224 225 222 228 230 226 234 236 229 224 225 225 219 218 224 222 221 223 217 212 215 227 223 216 225 227 224 229 227 230 236 231 229 230 228 224 216 216 220 218 219 220 223 228
274 265 254 252 248 244 240 241 243 245 248 251 251 250 248 249 248 248 253 253 249 246 235 231 233 232 236 242 241 241 235 227 224 222 224 227 227 225 224 226 229 229 223 218 224 229 224 228 232 225 228 237 232 223 228 234 225 218 220 219 214 216 219 216 213 219 219 218 228 230 226 226 225 230 237 236 231 227 226 223 218 222 225 222 220 218 221 228
267 259 259 255 243 238 239 243 252 257 257 254 253 253 250 249 250 251 252 250 244 241 234 229 231 234 239 239 237 239 234 225 223 221 223 227 226 224 221 221 223 227 224 216 219 227 223 222 230 228 224 231 233 223 224 231 228 221 220 222 220 215 214 216 216 216 216 218 225 229 232 233 229 231 238 238 232 223 219 223 224 226 225 221 218 218 222 229
255 252 261 255 238 233 239 253 266 267 261 254 250 252 252 250 249 249 249 246 240 237 234 232 234 236 238 236 235 237 232 225 223 223 226 227 225 223 222 220 218 218 221 219 219 224 222 219 225 231 230 229 230 225 221 222 220 219 220 223 222 218 215 217 221 221 218 220 223 224 233 236 229 230 236 234 228 220 216 221 225 226 224 221 221 222 223 223
248 253 262 250 231 231 247 269 276 271 265 262 258 257 258 255 252 250 249 245 239 235 233 234 235 233 231 233 236 236 233 229 225 223 225 226 224 226 224 219 216 216 217 219 221 221 221 218 222 230 232 230 230 228 225 224 218 215 219 220 218 216 214 215 225 229 222 221 222 220 230 237 231 230 232 228 225 221 217 220 225 228 228 226 226 227 226 221
247 258 263 245 229 239 264 279 280 276 270 268 266 264 264 261 256 252 250 244 239 236 235 233 232 229 227 229 232 234 234 232 228 224 224 223 221 226 225 218 215 216 217 220 224 223 219 215 220 229 229 226 230 230 228 229 222 214 218 220 217 218 217 215 223 228 222 222 223 218 227 234 230 230 229 223 222 222 220 221 223 229 235 235 234 232 227 223
242 254 259 244 238 253 280 287 289 289 280 276 275 271 269 264 257 254 251 244 239 237 235 233 231 228 226 227 230 232 231 230 230 227 223 221 222 228 228 218 214 218 219 223 229 227 224 222 223 229 229 227 230 233 231 229 224 220 224 223 219 221 220 218 223 226 219 219 221 222 231 233 228 231 229 220 219 221 224 225 224 229 235 237 233 223 217 220
233 250 259 258 254 266 286 289 291 293 288 288 286 280 275 267 259 256 251 245 240 236 234 233 232 230 230 229 229 232 231 226 228 228 221 219 224 230 226 214 213 220 221 223 226 225 226 226 220 220 225 227 231 234 234 231 226 223 227 226 220 219 219 221 226 226 221 221 219 218 229 231 225 228 228 222 220 221 225 229 230 231 231 232 230 218 211 219
237 258 272 280 276 280 291 290 290 291 291 294 293 287 281 271 264 259 250 245 241 236 233 234 234 232 232 231 230 234 233 226 226 228 224 222 222 225 224 214 212 220 224 224 224 222 223 223 218 216 218 221 225 228 229 229 226 224 227 229 223 217 219 222 223 222 223 225 221 218 223 222 218 221 222 222 222 221 224 228 227 226 225 228 230 223 218 224
242 267 280 292 299 299 298 298 300 297 293 297 297 292 285 275 268 261 249 241 240 237 234 235 234 232 233 232 229 232 235 231 229 227 225 224 221 223 228 224 216 218 220 223 226 224 222 221 220 220 219 220 223 228 229 226 223 222 226 232 231 225 221 220 222 224 222 221 225 228 222 213 212 217 219 222 224 224 229 231 224 222 222 220 219 218 220 227
250 272 277 290 301 304 307 307 308 306 301 301 301 298 293 284 272 261 247 239 239 238 234 234 234 231 232 232 225 228 234 232 231 229 226 226 225 226 231 229 228 230 226 226 232 227 221 221 222 221 222 223 226 233 233 226 221 223 225 231 236 235 228 220 223 225 220 219 229 231 221 211 210 214 218 224 228 230 237 239 234 235 234 222 216 215 216 223
262 275 277 292 298 300 317 317 314 320 318 310 304 301 301 298 282 260 248 243 240 236 231 233 237 234 234 232 223 225 231 228 229 231 227 227 227 228 232 231 233 237 229 228 234 227 220 223 223 220 222 227 232 235 232 224 222 225 227 230 237 239 231 221 223 226 222 223 227 220 214 216 217 217 222 227 227 228 234 236 232 232 233 222 212 210 212 217
270 283 292 310 304 296 318 326 329 336 332 318 312 310 308 308 294 264 247 241 239 237 227 225 234 237 236 232 222 222 226 223 225 229 226 226 226 224 226 229 232 235 229 228 233 228 223 225 224 221 223 230 234 232 228 226 225 225 229 232 235 238 234 225 225 226 221 224 223 210 208 220 225 224 224 224 223 222 224 228 228 230 232 222 201 198 205 203
268 283 293 319 330 325 333 340 345 347 341 334 328 319 314 318 312 280 252 235 231 235 229 223 231 233 231 230 224 222 223 219 219 224 224 224 225 224 223 225 229 236 234 230 233 235 230 228 227 224 224 231 234 230 230 234 233 228 230 235 236 236 234 231 229 226 223 223 220 211 212 222 228 227 224 223 223 222 225 234 237 239 240 230 213 210 211 212
211 248 284 348 345 339 342 347 352 357 353 352 343 322 322 331 333 315 264 235 223 225 229 229 232 230 227 228 226 225 226 221 218 222 223 222 224 226 228 227 229 234 235 231 236 240 233 227 227 223 222 230 233 231 233 238 236 233 235 243 244 237 232 233 233 232 228 219 213 214 219 223 225 225 224 224 223 222 232 241 241 242 243 235 222 219 220 225
182 232 316 31 0 346 351 354 357 4 2 358 350 328 328 334 338 343 283 247 233 225 228 230 228 228 228 229 230 233 235 230 227 228 227 224 226 228 231 233 233 231 228 227 233 238 228 219 222 223 222 226 228 227 230 232 232 235 238 241 242 237 234 234 235 236 233 224 221 224 224 224 224 223 223 226 226 226 232 235 235 238 239 234 226 224 224 227